Wind_Speed
13 13 13 12 13 12 13 12 11 10 9 9 9 9 9 10 10 10 9 8 9 9 9 8 9 9 8 7 7 6 5 5 4 4 4 4 4 4 3 3 2 3 3
14 13 13 13 12 13 12 12 11 10 10 9 9 9 9 9 9 9 8 8 9 9 9 9 8 8 8 7 6 5 4 4 4 3 3 4 4 4 3 3 2 3 3
14 14 13 12 12 12 12 12 12 11 10 10 9 9 8 8 8 8 8 9 9 9 9 8 8 7 6 6 6 5 4 4 4 3 3 3 3 3 3 3 3 3 3
14 13 13 13 12 12 12 12 12 11 10 9 9 8 8 8 8 9 9 9 8 8 8 8 7 6 5 5 4 4 3 3 3 3 2 2 2 3 3 3 3 3 3
14 14 13 12 12 12 12 12 12 11 10 10 9 9 9 9 9 9 9 8 8 8 8 8 7 6 6 5 4 3 3 3 3 2 2 2 2 3 3 3 4 4 3
15 15 14 13 13 12 12 12 11 10 10 9 9 9 9 9 8 8 9 8 8 8 8 7 6 6 5 4 4 4 3 3 2 2 1 1 2 2 3 4 4 4 4
15 15 15 14 13 12 12 11 11 10 10 10 10 9 9 9 9 9 9 8 8 8 7 6 5 5 5 4 4 4 3 3 3 2 2 3 2 2 3 3 4 4 4
16 16 15 14 13 12 12 12 11 11 11 10 10 9 8 9 9 8 8 8 8 7 6 5 4 4 4 4 4 4 4 4 3 3 3 3 2 3 3 3 4 3 4
17 16 16 15 13 13 13 12 11 10 10 10 10 9 9 8 8 8 8 7 7 6 6 5 4 3 3 3 4 4 4 3 3 3 3 3 3 3 3 4 4 3 3
17 16 16 15 14 13 13 12 11 11 10 9 8 8 7 7 7 6 6 6 5 6 6 5 4 3 3 3 3 3 3 3 3 3 3 3 2 2 3 3 3 3 3
18 17 16 16 15 14 13 12 11 10 9 9 8 7 7 6 6 5 6 5 5 5 4 3 3 3 3 4 3 3 2 2 3 2 3 3 2 2 2 3 3 3 3
18 17 16 16 15 14 13 12 11 10 9 8 7 7 6 6 6 5 5 5 5 4 4 3 2 2 3 3 3 2 2 3 2 2 2 2 2 2 2 2 2 2 3
17 16 16 15 15 15 14 13 11 10 9 8 8 7 6 6 5 5 5 5 4 4 3 3 3 3 3 3 3 2 2 2 2 2 2 2 2 1 1 2 3 2 2
18 16 16 15 15 15 14 13 12 10 9 8 7 7 6 5 5 5 5 4 4 3 3 3 3 2 3 3 2 2 2 2 1 1 1 1 1 1 2 3 3 3 3
17 16 16 15 15 15 14 13 12 10 9 9 8 7 5 5 5 4 4 3 3 3 3 2 2 1 2 2 1 2 2 1 1 1 1 1 1 1 2 3 3 3 3
17 16 15 15 14 14 13 13 12 11 9 8 7 7 6 4 4 4 4 4 3 2 1 1 1 1 1 1 1 1 1 1 2 2 2 2 2 2 3 3 3 3 3
17 16 15 14 13 13 13 13 11 10 9 9 8 6 5 4 4 3 3 2 1 1 1 0 1 1 1 1 0 1 1 2 2 3 3 3 3 3 3 3 4 4 3
17 16 15 14 13 12 12 12 11 10 9 8 7 6 5 5 4 3 2 1 1 1 1 0 1 1 1 1 1 1 2 2 3 3 4 4 4 4 4 4 5 5 5
17 16 15 14 13 12 12 11 11 10 9 8 7 7 6 5 4 2 2 1 0 1 0 0 0 1 1 1 1 2 2 2 2 4 4 5 5 5 5 5 5 5 5
17 16 15 14 13 12 11 11 10 10 9 8 7 7 6 5 4 3 2 1 1 1 1 1 2 1 1 1 1 2 3 3 3 3 4 5 5 5 5 5 5 6 6
17 17 16 15 13 12 11 10 10 9 9 8 8 8 6 5 5 4 3 2 2 2 2 2 1 2 2 2 2 3 4 4 4 4 4 4 5 5 5 5 5 5 6
16 16 16 15 14 13 11 10 10 9 9 8 7 7 6 5 4 4 3 3 3 3 3 2 2 2 2 3 3 3 4 4 5 5 5 5 5 5 5 4 5 6 7
15 15 15 15 14 13 11 11 10 9 9 8 7 6 6 6 6 5 4 4 4 4 3 3 3 3 3 3 4 4 4 5 5 5 5 6 6 6 6 6 6 7 7
14 15 14 15 14 13 11 10 10 9 9 9 8 6 6 6 6 6 5 4 4 4 4 4 4 4 4 5 5 5 5 5 6 6 6 6 7 7 7 7 8 8 8
14 14 13 14 14 13 12 11 10 9 8 8 7 6 6 6 6 6 5 5 4 5 5 5 6 6 5 5 5 5 6 6 6 6 6 7 8 9 8 9 9 9 10
13 13 13 13 14 13 12 11 10 9 8 8 7 6 6 6 6 6 6 6 6 6 6 6 6 6 6 6 6 6 6 6 6 6 7 7 8 8 9 9 9 10 10
Wind_Direction
58 61 65 71 73 70 67 69 73 81 86 89 100 110 119 123 129 134 134 135 135 137 141 139 140 136 129 126 124 128 124 129 129 132 140 138 142 140 140 142 133 112 110
58 63 69 70 68 68 69 69 73 81 83 84 96 104 109 120 134 140 144 143 139 139 139 137 134 130 129 130 131 132 123 125 135 131 132 141 144 145 147 141 135 123 116
57 64 70 72 70 69 70 73 77 83 82 87 94 100 105 114 130 138 138 138 138 140 140 135 134 131 129 129 129 131 131 128 136 134 131 137 148 164 169 146 138 121 116
59 64 68 72 72 73 74 76 78 80 84 91 98 102 103 110 123 132 133 132 137 140 141 136 134 135 138 138 138 137 143 129 137 137 130 131 137 158 159 142 137 122 118
59 62 68 74 75 74 75 77 79 81 83 90 100 106 105 110 119 125 130 132 135 133 134 131 131 134 136 132 128 128 134 128 139 131 112 107 123 126 137 136 134 125 113
61 62 65 72 77 77 74 75 79 82 86 87 94 103 105 110 114 121 128 132 134 135 134 134 135 136 138 134 128 123 121 119 119 123 112 99 113 108 131 136 129 124 120
61 64 64 66 69 74 75 74 81 83 89 90 96 105 107 106 110 118 128 131 133 136 139 134 135 135 137 136 130 126 118 115 107 105 108 95 95 109 121 125 127 129 119
61 63 64 66 68 69 72 76 80 81 89 92 97 109 110 113 115 118 122 129 129 126 127 129 131 137 138 131 127 119 115 113 103 97 96 89 93 107 113 125 130 132 123
61 63 64 65 66 66 68 75 76 75 77 83 87 98 107 113 111 111 115 115 117 121 119 114 120 123 128 124 115 108 102 101 93 89 94 93 99 112 128 134 141 144 134
61 62 62 64 65 65 66 69 73 75 74 77 81 89 99 107 109 108 113 116 116 118 115 111 118 127 134 128 120 113 107 102 93 90 97 98 105 125 140 142 148 149 151
60 61 61 62 62 62 63 64 67 69 73 77 78 82 92 104 107 109 114 119 124 124 122 116 118 124 137 132 130 131 123 126 102 94 95 97 110 128 136 145 157 160 172
57 57 58 57 56 58 60 60 62 64 69 73 78 82 92 102 108 111 116 119 121 126 123 121 129 121 125 134 142 138 130 134 116 102 107 107 107 122 147 162 170 176 190
53 54 54 54 54 55 55 57 59 60 66 68 70 78 88 97 102 110 119 125 123 127 119 112 117 115 122 133 144 143 135 140 130 114 117 104 115 135 174 193 200 198 200
50 50 49 49 50 51 52 52 55 58 59 61 68 71 80 89 91 106 110 113 114 118 115 108 112 118 132 137 131 145 163 148 120 106 134 129 141 169 215 216 224 231 231
46 46 46 46 46 46 46 46 50 55 55 56 60 64 73 88 92 102 104 107 109 102 97 90 97 108 149 149 148 150 167 190 224 234 207 218 239 244 241 231 225 226 234
44 43 44 45 45 44 43 44 45 48 50 47 47 52 62 83 96 99 99 102 98 84 92 122 120 137 156 174 194 222 239 256 252 240 249 250 258 252 244 233 229 226 238
39 39 40 41 42 42 42 42 44 45 43 40 39 43 52 63 85 93 88 85 78 40 34 158 156 169 180 178 236 263 261 272 267 257 253 253 255 258 253 247 239 244 240
34 34 35 36 36 37 38 39 42 43 40 38 41 42 46 52 70 87 90 77 33 358 5 110 144 188 228 244 272 286 290 285 276 263 261 261 258 258 257 253 252 248 249
31 30 30 31 31 31 32 34 35 36 35 36 41 41 42 43 52 64 80 73 26 13 6 163 184 233 254 259 272 287 293 301 289 271 268 264 263 261 260 258 251 246 253
26 26 25 25 24 25 27 29 31 33 34 36 41 41 38 35 36 42 36 24 351 327 297 256 251 255 266 278 286 286 291 294 292 285 277 269 263 257 258 261 255 251 258
20 21 21 21 20 20 23 24 27 27 28 31 34 33 32 31 30 36 36 19 3 343 325 299 291 284 291 297 295 294 290 287 284 285 285 276 267 260 259 262 259 258 267
13 14 16 18 17 16 17 17 20 22 24 27 29 30 31 30 27 22 6 3 1 354 337 318 302 309 308 292 290 296 293 289 282 282 279 274 270 264 265 261 265 266 268
10 9 11 15 13 14 15 16 18 19 24 24 25 27 28 29 21 8 355 349 355 349 333 316 310 300 306 290 281 287 292 293 293 286 273 268 267 269 266 264 267 272 278
4 3 5 8 9 9 10 11 11 16 20 20 19 19 18 21 15 5 2 353 346 345 339 330 317 307 296 285 277 278 288 292 292 287 273 268 267 267 265 269 270 273 281
359 360 0 2 4 6 7 7 7 8 9 11 11 10 9 6 3 2 358 353 339 332 328 325 313 304 296 286 279 278 284 290 288 282 275 273 272 268 266 268 272 276 280
352 355 358 359 360 1 2 4 5 4 2 1 0 357 358 357 353 354 349 349 345 337 326 321 316 305 292 283 284 282 285 288 288 283 280 275 276 271 270 270 273 277 277
Height
5868 5866 5866 5864 5864 5864 5864 5864 5863 5864 5864 5864 5864 5865 5866 5867 5869 5870 5871 5873 5874 5875 5876 5877 5878 5879 5880 5881 5882 5883 5883 5884 5885 5886 5886 5887 5887 5888 5888 5889 5890 5890 5890
5870 5868 5868 5867 5866 5866 5865 5865 5865 5865 5865 5866 5866 5867 5868 5868 5869 5871 5873 5874 5875 5876 5877 5878 5879 5880 5881 5882 5883 5883 5884 5885 5885 5886 5887 5887 5888 5888 5889 5889 5890 5890 5891
5872 5871 5870 5869 5868 5868 5867 5867 5867 5866 5867 5867 5868 5868 5869 5870 5871 5872 5873 5874 5875 5877 5878 5879 5880 5881 5882 5883 5883 5884 5885 5885 5886 5887 5887 5888 5888 5888 5889 5889 5890 5890 5891
5874 5873 5872 5871 5870 5870 5869 5869 5869 5869 5869 5869 5869 5870 5870 5871 5872 5873 5874 5875 5876 5878 5879 5880 5881 5882 5883 5883 5884 5885 5885 5886 5886 5887 5888 5888 5888 5889 5889 5889 5890 5890 5891
5876 5875 5874 5873 5872 5872 5871 5871 5870 5871 5871 5871 5871 5871 5872 5872 5873 5874 5875 5876 5878 5879 5880 5881 5882 5883 5883 5884 5885 5885 5886 5886 5887 5887 5888 5888 5888 5889 5889 5890 5890 5891 5891
5878 5877 5876 5875 5874 5873 5873 5873 5872 5872 5872 5872 5872 5872 5873 5873 5874 5875 5876 5877 5879 5880 5880 5882 5882 5883 5884 5885 5885 5885 5886 5886 5887 5888 5888 5888 5889 5889 5889 5890 5890 5891 5892
5880 5879 5878 5877 5876 5875 5875 5875 5874 5874 5873 5874 5874 5874 5875 5875 5876 5877 5878 5879 5880 5880 5881 5882 5883 5884 5884 5885 5885 5886 5886 5887 5887 5888 5888 5889 5889 5889 5890 5890 5891 5892 5892
5883 5881 5880 5879 5878 5877 5877 5876 5876 5875 5875 5875 5875 5876 5876 5877 5878 5878 5879 5880 5881 5881 5882 5883 5884 5884 5885 5885 5886 5886 5887 5887 5888 5888 5888 5889 5889 5890 5890 5891 5892 5892 5893
5885 5884 5883 5881 5880 5880 5879 5878 5878 5878 5877 5877 5877 5877 5878 5878 5879 5879 5880 5881 5882 5882 5883 5884 5884 5885 5885 5886 5886 5887 5887 5888 5888 5889 5889 5889 5890 5890 5891 5891 5892 5893 5893
5888 5886 5885 5884 5883 5882 5882 5881 5880 5880 5879 5879 5879 5879 5879 5880 5880 5881 5881 5882 5883 5883 5884 5884 5885 5885 5886 5886 5887 5888 5888 5889 5889 5889 5890 5890 5890 5891 5891 5892 5893 5893 5894
5890 5889 5888 5886 5885 5885 5884 5883 5882 5881 5881 5881 5881 5880 5881 5881 5882 5882 5883 5883 5884 5884 5885 5885 5885 5885 5886 5887 5888 5888 5888 5889 5889 5890 5890 5891 5891 5891 5892 5893 5893 5894 5894
5893 5892 5890 5889 5888 5887 5886 5885 5884 5884 5883 5883 5882 5882 5882 5882 5883 5883 5884 5884 5885 5885 5886 5886 5886 5886 5886 5887 5888 5888 5889 5889 5890 5890 5891 5891 5891 5892 5892 5893 5893 5894 5894
5896 5894 5893 5892 5890 5889 5888 5887 5886 5885 5885 5884 5884 5883 5883 5883 5884 5884 5884 5885 5885 5886 5886 5886 5887 5887 5888 5888 5888 5889 5889 5890 5890 5891 5891 5891 5892 5892 5893 5893 5894 5894 5895
5899 5897 5896 5894 5893 5891 5890 5889 5888 5887 5886 5886 5885 5885 5884 5884 5885 5885 5885 5886 5886 5886 5887 5887 5887 5888 5888 5889 5889 5889 5890 5890 5890 5891 5891 5892 5892 5892 5893 5893 5893 5894 5894
5901 5900 5898 5897 5895 5894 5892 5891 5890 5889 5888 5887 5886 5886 5885 5885 5885 5886 5886 5886 5887 5887 5887 5887 5888 5888 5889 5889 5889 5889 5890 5890 5891 5891 5892 5892 5892 5892 5893 5893 5893 5893 5893
5904 5902 5901 5899 5897 5896 5894 5893 5891 5890 5889 5888 5887 5887 5886 5886 5886 5886 5887 5887 5887 5888 5888 5888 5888 5888 5889 5889 5889 5889 5890 5890 5891 5891 5891 5892 5892 5892 5892 5892 5893 5893 5893
5906 5904 5903 5901 5900 5898 5896 5895 5893 5892 5891 5890 5889 5888 5888 5887 5887 5887 5887 5888 5888 5888 5888 5888 5888 5889 5889 5889 5889 5889 5890 5890 5890 5890 5891 5891 5891 5892 5892 5891 5892 5892 5892
5908 5906 5904 5903 5901 5900 5898 5897 5895 5894 5892 5891 5890 5889 5889 5888 5888 5888 5888 5888 5888 5888 5888 5888 5889 5889 5889 5889 5889 5889 5889 5889 5890 5890 5890 5890 5890 5891 5891 5891 5891 5891 5892
5910 5908 5906 5904 5903 5901 5900 5898 5897 5895 5894 5892 5891 5890 5889 5889 5888 5888 5889 5889 5889 5889 5888 5888 5888 5888 5888 5889 5889 5889 5889 5889 5889 5889 5889 5889 5889 5889 5890 5890 5890 5890 5891
5912 5910 5908 5906 5904 5902 5901 5899 5898 5896 5895 5893 5892 5891 5890 5890 5889 5889 5889 5889 5889 5889 5888 5888 5888 5888 5888 5888 5888 5888 5888 5888 5888 5888 5888 5888 5888 5888 5889 5889 5889 5889 5889
5914 5912 5909 5907 5905 5903 5901 5900 5898 5897 5896 5895 5893 5892 5891 5890 5890 5889 5889 5889 5889 5888 5888 5888 5888 5888 5887 5888 5888 5888 5888 5887 5887 5888 5888 5887 5887 5887 5888 5888 5888 5888 5888
5914 5912 5910 5908 5906 5904 5902 5900 5899 5898 5896 5895 5895 5893 5892 5891 5890 5890 5889 5889 5889 5888 5888 5887 5887 5887 5887 5887 5887 5887 5887 5887 5886 5886 5886 5886 5886 5887 5887 5887 5887 5887 5887
5915 5913 5911 5908 5906 5904 5902 5901 5899 5898 5897 5896 5895 5894 5893 5892 5891 5890 5890 5889 5889 5888 5887 5887 5886 5886 5886 5886 5886 5887 5886 5886 5886 5885 5885 5885 5885 5885 5886 5885 5885 5885 5885
5915 5913 5911 5909 5907 5905 5903 5901 5900 5899 5898 5897 5896 5895 5894 5893 5892 5891 5890 5889 5888 5888 5887 5886 5886 5885 5885 5885 5886 5886 5886 5885 5884 5884 5884 5884 5884 5884 5884 5884 5884 5884 5884
5915 5913 5911 5909 5907 5905 5903 5902 5901 5900 5898 5897 5896 5895 5894 5893 5892 5891 5890 5889 5888 5887 5886 5886 5885 5885 5884 5884 5884 5884 5884 5884 5883 5883 5883 5883 5883 5883 5882 5882 5882 5882 5882
5915 5913 5911 5909 5907 5905 5904 5902 5901 5900 5899 5898 5897 5896 5895 5894 5892 5891 5890 5889 5888 5887 5886 5885 5884 5884 5883 5883 5883 5883 5883 5882 5882 5881 5881 5881 5881 5881 5881 5880 5880 5880 5879